Time,TemperatureF,DewpointF,PressureIn,WindDirection,WindDirectionDegrees,WindSpeedMPH,WindSpeedGustMPH,Humidity,HourlyPrecipIn,Conditions,Clouds,dailyrainin,SolarRadiationWatts/m^2,SoftwareType,DateUTC
2014-10-23 00:01:00,77.3,69.1,29.93,NNE,25,3.0,4.6,76,0.00,CLR,SKC,0.00,0.0,WeatherDisplay:10.37,2014-10-23 04:01:00,
2014-10-23 00:06:00,77.3,69.1,29.92,NNE,26,1.8,3.5,76,0.00,CLR,SKC,0.00,0.0,WeatherDisplay:10.37,2014-10-23 04:06:00,
2014-10-23 00:11:00,77.2,69.0,29.92,NNE,22,4.1,8.1,76,0.00,CLR,SKC,0.00,0.0,WeatherDisplay:10.37,2014-10-23 04:11:00,
2014-10-23 00:16:00,77.2,68.7,29.92,NNE,22,2.9,5.8,75,0.00,CLR,SKC,0.00,0.0,WeatherDisplay:10.37,2014-10-23 04:16:00,
2014-10-23 00:21:00,77.2,68.7,29.92,NNE,22,1.9,3.5,75,0.00,CLR,SKC,0.00,0.0,WeatherDisplay:10.37,2014-10-23 04:21:00,
2014-10-23 00:26:00,77.1,68.6,29.92,North,5,3.7,6.9,75,0.00,CLR,SKC,0.00,0.0,WeatherDisplay:10.37,2014-10-23 04:26:00,
2014-10-23 00:31:00,77.2,68.7,29.92,North,8,2.5,4.6,75,0.00,CLR,SKC,0.00,0.0,WeatherDisplay:10.37,2014-10-23 04:31:00,
2014-10-23 00:36:00,77.2,68.7,29.92,NNE,18,2.7,4.6,75,0.00,CLR,SKC,0.00,0.0,WeatherDisplay:10.37,2014-10-23 04:36:00,
2014-10-23 00:41:00,77.1,68.6,29.91,NNE,16,2.9,5.8,75,0.00,CLR,SKC,0.00,0.0,WeatherDisplay:10.37,2014-10-23 04:41:00,
2014-10-23 00:47:00,77.1,68.6,29.91,NNE,16,2.9,4.6,75,0.00,CLR,SKC,0.00,0.0,WeatherDisplay:10.37,2014-10-23 04:47:00,
2014-10-23 00:52:00,77.1,68.6,29.91,NNE,16,1.3,3.5,75,0.00,CLR,SKC,0.00,0.0,WeatherDisplay:10.37,2014-10-23 04:52:00,
2014-10-23 00:57:00,77.1,68.9,29.92,NNE,16,2.0,3.5,76,0.00,CLR,SKC,0.00,0.0,WeatherDisplay:10.37,2014-10-23 04:57:00,
2014-10-23 01:02:00,77.1,68.9,29.91,NNE,15,2.1,3.5,76,0.00,CLR,SKC,0.00,0.0,WeatherDisplay:10.37,2014-10-23 05:02:00,
2014-10-23 01:07:00,77.0,68.5,29.91,NNE,17,3.1,5.8,75,0.00,CLR,SKC,0.00,0.0,WeatherDisplay:10.37,2014-10-23 05:07:00,
2014-10-23 01:12:00,77.0,68.9,29.91,NNE,17,1.9,3.5,76,0.00,CLR,SKC,0.00,0.0,WeatherDisplay:10.37,2014-10-23 05:12:00,
2014-10-23 01:17:00,76.9,68.8,29.92,North,11,3.4,4.6,76,0.00,CLR,SKC,0.00,0.0,WeatherDisplay:10.37,2014-10-23 05:17:00,
2014-10-23 01:22:00,76.9,68.4,29.92,NNE,13,1.2,3.5,75,0.00,CLR,SKC,0.00,0.0,WeatherDisplay:10.37,2014-10-23 05:22:00,
2014-10-23 01:27:00,76.9,68.4,29.91,North,5,2.4,5.0,75,0.00,CLR,SKC,0.00,0.0,WeatherDisplay:10.37,2014-10-23 05:27:00,
2014-10-23 01:32:00,76.9,68.0,29.91,North,5,3.6,5.8,74,0.00,CLR,SKC,0.00,0.0,WeatherDisplay:10.37,2014-10-23 05:32:00,
2014-10-23 01:37:00,76.9,68.0,29.91,North,5,1.5,3.5,74,0.00,CLR,SKC,0.00,0.0,WeatherDisplay:10.37,2014-10-23 05:37:00,
2014-10-23 01:42:00,76.9,68.0,29.91,North,5,1.9,3.5,74,0.00,CLR,SKC,0.00,0.0,WeatherDisplay:10.37,2014-10-23 05:42:00,
2014-10-23 01:47:00,76.9,68.4,29.91,North,5,2.1,4.6,75,0.00,CLR,SKC,0.00,0.0,WeatherDisplay:10.37,2014-10-23 05:47:00,
2014-10-23 01:52:00,77.0,69.2,29.91,North,7,2.3,3.5,77,0.00,CLR,SKC,0.00,0.0,WeatherDisplay:10.37,2014-10-23 05:52:00,
2014-10-23 01:57:00,77.0,69.2,29.91,North,359,3.9,8.1,77,0.00,CLR,SKC,0.00,0.0,WeatherDisplay:10.37,2014-10-23 05:57:00,
2014-10-23 02:02:00,77.0,69.2,29.90,ENE,69,4.1,6.9,77,0.00,CLR,SKC,0.00,0.0,WeatherDisplay:10.37,2014-10-23 06:02:00,
2014-10-23 02:07:00,77.0,69.2,29.91,NNE,28,3.4,4.6,77,0.00,CLR,SKC,0.00,0.0,WeatherDisplay:10.37,2014-10-23 06:07:00,
2014-10-23 02:12:00,77.1,69.3,29.90,NNE,19,3.0,4.6,77,0.00,CLR,SKC,0.00,0.0,WeatherDisplay:10.37,2014-10-23 06:12:00,
2014-10-23 02:17:00,77.1,68.9,29.91,NNE,19,3.9,8.1,76,0.00,CLR,SKC,0.00,0.0,WeatherDisplay:10.37,2014-10-23 06:17:00,
2014-10-23 02:22:00,77.2,69.0,29.90,NNE,19,3.8,5.8,76,0.00,CLR,SKC,0.00,0.0,WeatherDisplay:10.37,2014-10-23 06:22:00,
2014-10-23 02:27:00,77.2,69.0,29.90,NE,55,2.4,3.5,76,0.00,CLR,SKC,0.00,0.0,WeatherDisplay:10.37,2014-10-23 06:27:00,
2014-10-23 02:32:00,77.2,69.0,29.90,NNE,24,1.9,6.0,76,0.00,CLR,SKC,0.00,0.0,WeatherDisplay:10.37,2014-10-23 06:32:00,
2014-10-23 02:37:00,77.2,69.0,29.90,NNE,25,1.3,2.3,76,0.00,CLR,SKC,0.00,0.0,WeatherDisplay:10.37,2014-10-23 06:37:00,
2014-10-23 02:42:00,77.1,68.6,29.90,North,9,2.8,4.0,75,0.00,CLR,SKC,0.00,0.0,WeatherDisplay:10.37,2014-10-23 06:42:00,
2014-10-23 02:47:00,77.1,68.6,29.90,NNE,16,3.6,4.6,75,0.00,CLR,SKC,0.00,0.0,WeatherDisplay:10.37,2014-10-23 06:47:00,
2014-10-23 02:52:00,77.0,68.5,29.90,NNE,13,2.1,5.0,75,0.00,CLR,SKC,0.00,0.0,WeatherDisplay:10.37,2014-10-23 06:52:00,
2014-10-23 02:57:00,77.0,68.5,29.90,North,11,3.2,4.6,75,0.00,CLR,SKC,0.00,0.0,WeatherDisplay:10.37,2014-10-23 06:57:00,
2014-10-23 03:02:00,77.0,68.9,29.90,NNE,33,1.6,4.0,76,0.00,CLR,SKC,0.00,0.0,WeatherDisplay:10.37,2014-10-23 07:02:00,
2014-10-23 03:07:00,76.9,68.4,29.89,NNE,27,2.9,3.5,75,0.00,CLR,SKC,0.00,0.0,WeatherDisplay:10.37,2014-10-23 07:07:00,
2014-10-23 03:12:00,76.9,68.4,29.89,NNE,17,2.8,4.6,75,0.00,CLR,SKC,0.00,0.0,WeatherDisplay:10.37,2014-10-23 07:12:00,
2014-10-23 03:17:00,76.9,68.4,29.89,North,11,4.8,8.1,75,0.00,CLR,SKC,0.00,0.0,WeatherDisplay:10.37,2014-10-23 07:17:00,
2014-10-23 03:22:00,77.0,68.5,29.90,NNE,15,3.2,4.6,75,0.00,CLR,SKC,0.00,0.0,WeatherDisplay:10.37,2014-10-23 07:22:00,
2014-10-23 03:27:00,76.9,68.4,29.89,NNE,15,2.9,5.8,75,0.00,CLR,SKC,0.00,0.0,WeatherDisplay:10.37,2014-10-23 07:27:00,
2014-10-23 03:32:00,77.0,68.1,29.90,NNE,15,4.4,8.1,74,0.00,CLR,SKC,0.00,0.0,WeatherDisplay:10.37,2014-10-23 07:32:00,
2014-10-23 03:37:00,77.2,68.3,29.90,NNE,15,2.9,6.0,74,0.00,CLR,SKC,0.00,0.0,WeatherDisplay:10.37,2014-10-23 07:37:00,
2014-10-23 03:42:00,77.2,68.3,29.89,North,7,2.6,4.6,74,0.00,CLR,SKC,0.00,0.0,WeatherDisplay:10.37,2014-10-23 07:42:00,
2014-10-23 03:47:00,77.2,68.3,29.89,North,7,3.4,8.1,74,0.00,CLR,SKC,0.00,0.0,WeatherDisplay:10.37,2014-10-23 07:47:00,
2014-10-23 03:52:00,77.1,68.2,29.89,North,8,2.8,3.5,74,0.00,CLR,SKC,0.00,0.0,WeatherDisplay:10.37,2014-10-23 07:52:00,
2014-10-23 03:57:00,77.1,68.2,29.89,NNE,12,3.4,5.8,74,0.00,CLR,SKC,0.00,0.0,WeatherDisplay:10.37,2014-10-23 07:57:00,
2014-10-23 04:02:00,77.0,68.1,29.89,NNE,18,2.0,3.5,74,0.00,CLR,SKC,0.00,0.0,WeatherDisplay:10.37,2014-10-23 08:02:00,
2014-10-23 04:07:00,76.9,68.0,29.89,North,356,4.9,10.4,74,0.00,CLR,SKC,0.00,0.0,WeatherDisplay:10.37,2014-10-23 08:07:00,
2014-10-23 04:12:00,77.0,67.7,29.89,NNE,25,3.1,5.8,73,0.00,CLR,SKC,0.00,0.0,WeatherDisplay:10.37,2014-10-23 08:12:00,
2014-10-23 04:17:00,77.0,68.1,29.89,NNE,15,2.6,3.5,74,0.00,CLR,SKC,0.00,0.0,WeatherDisplay:10.37,2014-10-23 08:17:00,
2014-10-23 04:22:00,77.0,67.7,29.89,NNE,20,3.5,4.6,73,0.00,CLR,SKC,0.00,0.0,WeatherDisplay:10.37,2014-10-23 08:22:00,
2014-10-23 04:27:00,77.0,67.7,29.89,North,11,3.2,5.8,73,0.00,CLR,SKC,0.00,0.0,WeatherDisplay:10.37,2014-10-23 08:27:00,
2014-10-23 04:32:00,77.0,68.1,29.89,North,5,3.4,4.6,74,0.00,CLR,SKC,0.00,0.0,WeatherDisplay:10.37,2014-10-23 08:32:00,
2014-10-23 04:37:00,77.0,67.7,29.88,North,11,1.9,3.5,73,0.00,CLR,SKC,0.00,0.0,WeatherDisplay:10.37,2014-10-23 08:37:00,
2014-10-23 04:42:00,76.9,67.6,29.89,NNE,28,2.8,3.5,73,0.00,CLR,SKC,0.00,0.0,WeatherDisplay:10.37,2014-10-23 08:42:00,
2014-10-23 04:47:00,76.9,67.6,29.89,NNE,16,2.3,4.6,73,0.00,CLR,SKC,0.00,0.0,WeatherDisplay:10.37,2014-10-23 08:47:00,
2014-10-23 04:52:00,76.9,68.0,29.89,NNE,19,2.3,6.9,74,0.00,CLR,SKC,0.00,0.0,WeatherDisplay:10.37,2014-10-23 08:52:00,
2014-10-23 04:57:00,77.0,68.1,29.89,NNE,19,3.0,6.9,74,0.00,CLR,SKC,0.00,0.0,WeatherDisplay:10.37,2014-10-23 08:57:00,
2014-10-23 05:02:00,77.0,68.1,29.89,NNE,17,3.2,5.8,74,0.00,CLR,SKC,0.00,0.0,WeatherDisplay:10.37,2014-10-23 09:02:00,
2014-10-23 05:07:00,77.0,68.5,29.90,NNE,21,1.8,3.5,75,0.00,CLR,SKC,0.00,0.0,WeatherDisplay:10.37,2014-10-23 09:07:00,
2014-10-23 05:12:00,76.9,68.4,29.89,NNE,15,2.0,3.5,75,0.00,CLR,SKC,0.00,0.0,WeatherDisplay:10.37,2014-10-23 09:12:00,
2014-10-23 05:17:00,77.0,68.5,29.90,NNE,26,3.2,5.8,75,0.00,CLR,SKC,0.00,0.0,WeatherDisplay:10.37,2014-10-23 09:17:00,
2014-10-23 05:22:00,77.0,68.9,29.90,NNE,21,4.1,5.0,76,0.00,CLR,SKC,0.00,0.0,WeatherDisplay:10.37,2014-10-23 09:22:00,
2014-10-23 05:27:00,77.0,68.5,29.90,NNE,15,3.7,5.8,75,0.00,CLR,SKC,0.00,0.0,WeatherDisplay:10.37,2014-10-23 09:27:00,
2014-10-23 05:32:00,76.9,68.4,29.90,NNE,20,5.1,11.5,75,0.00,CLR,SKC,0.00,0.0,WeatherDisplay:10.37,2014-10-23 09:32:00,
2014-10-23 05:37:00,76.9,68.4,29.90,NNE,13,3.2,3.5,75,0.00,CLR,SKC,0.00,0.0,WeatherDisplay:10.37,2014-10-23 09:37:00,
2014-10-23 05:42:00,76.9,68.4,29.90,NNE,19,2.1,6.9,75,0.00,CLR,SKC,0.00,0.0,WeatherDisplay:10.37,2014-10-23 09:42:00,
2014-10-23 05:47:00,76.8,68.3,29.90,NNE,13,3.5,8.1,75,0.00,CLR,SKC,0.00,0.0,WeatherDisplay:10.37,2014-10-23 09:47:00,
2014-10-23 05:52:00,76.8,68.3,29.90,NNE,26,3.8,4.6,75,0.00,CLR,SKC,0.00,0.0,WeatherDisplay:10.37,2014-10-23 09:52:00,
2014-10-23 05:57:00,76.7,68.2,29.90,NNE,17,1.5,3.5,75,0.00,CLR,SKC,0.00,0.0,WeatherDisplay:10.37,2014-10-23 09:57:00,
2014-10-23 06:02:00,76.7,68.2,29.90,NNE,12,1.9,3.5,75,0.00,CLR,SKC,0.00,0.0,WeatherDisplay:10.37,2014-10-23 10:02:00,
2014-10-23 06:07:00,76.7,68.2,29.90,North,7,2.0,4.6,75,0.00,CLR,SKC,0.00,0.0,WeatherDisplay:10.37,2014-10-23 10:07:00,
2014-10-23 06:12:00,76.7,68.2,29.90,North,7,3.7,9.2,75,0.00,CLR,SKC,0.00,0.0,WeatherDisplay:10.37,2014-10-23 10:12:00,
2014-10-23 06:17:00,76.7,68.2,29.91,NNE,23,2.5,8.1,75,0.00,CLR,SKC,0.00,0.0,WeatherDisplay:10.37,2014-10-23 10:17:00,
2014-10-23 06:22:00,76.8,67.9,29.90,ESE,119,1.6,6.9,74,0.00,CLR,SKC,0.00,0.0,WeatherDisplay:10.37,2014-10-23 10:22:00,
2014-10-23 06:27:00,76.7,67.8,29.91,NNE,14,1.4,3.5,74,0.00,CLR,SKC,0.00,0.0,WeatherDisplay:10.37,2014-10-23 10:27:00,
2014-10-23 06:32:00,76.7,68.2,29.91,North,359,1.5,5.8,75,0.00,CLR,SKC,0.00,0.0,WeatherDisplay:10.37,2014-10-23 10:32:00,
2014-10-23 06:37:00,76.7,67.8,29.91,East,99,6.0,10.4,74,0.00,CLR,SKC,0.00,0.0,WeatherDisplay:10.37,2014-10-23 10:37:00,
2014-10-23 06:42:00,76.7,67.8,29.91,NE,52,1.8,3.5,74,0.00,CLR,SKC,0.00,0.0,WeatherDisplay:10.37,2014-10-23 10:42:00,
2014-10-23 06:47:00,76.7,67.8,29.91,East,98,1.1,4.6,74,0.00,CLR,SKC,0.00,0.0,WeatherDisplay:10.37,2014-10-23 10:47:00,
2014-10-23 06:52:00,76.6,68.1,29.91,NNE,19,2.8,8.1,75,0.00,CLR,SKC,0.00,0.0,WeatherDisplay:10.37,2014-10-23 10:52:00,
2014-10-23 06:57:00,76.6,67.7,29.91,SE,125,2.0,9.2,74,0.00,CLR,SKC,0.00,0.0,WeatherDisplay:10.37,2014-10-23 10:57:00,
2014-10-23 07:02:00,76.5,68.0,29.91,ESE,109,2.7,8.1,75,0.00,OVC,SKC,0.00,0.0,WeatherDisplay:10.37,2014-10-23 11:02:00,
2014-10-23 07:07:00,76.5,67.6,29.91,NNE,19,3.3,5.8,74,0.00,OVC,SKC,0.00,0.0,WeatherDisplay:10.37,2014-10-23 11:07:00,
2014-10-23 07:12:00,76.5,68.0,29.91,NE,38,4.0,8.0,75,0.00,OVC,SKC,0.00,0.0,WeatherDisplay:10.37,2014-10-23 11:12:00,
2014-10-23 07:17:00,76.5,68.0,29.91,NNE,26,2.2,3.5,75,0.00,OVC,SKC,0.00,0.0,WeatherDisplay:10.37,2014-10-23 11:17:00,
2014-10-23 07:22:00,76.5,68.0,29.91,NNE,20,2.6,4.6,75,0.00,OVC,SKC,0.00,0.0,WeatherDisplay:10.37,2014-10-23 11:22:00,
2014-10-23 07:27:00,76.4,67.9,29.91,NNE,19,4.2,6.0,75,0.00,OVC,SKC,0.00,0.0,WeatherDisplay:10.37,2014-10-23 11:27:00,
2014-10-23 07:32:00,76.4,67.5,29.91,East,88,3.2,10.4,74,0.00,OVC,SKC,0.00,0.0,WeatherDisplay:10.37,2014-10-23 11:32:00,
2014-10-23 07:37:00,76.4,67.9,29.92,North,11,3.5,5.0,75,0.00,OVC,SKC,0.00,0.0,WeatherDisplay:10.37,2014-10-23 11:37:00,
2014-10-23 07:42:00,76.3,67.4,29.92,NNE,21,2.7,7.0,74,0.00,OVC,SKC,0.00,5.0,WeatherDisplay:10.37,2014-10-23 11:42:00,
2014-10-23 07:47:00,76.3,67.8,29.92,NE,52,2.1,4.6,75,0.00,BKN,SKC,0.00,5.0,WeatherDisplay:10.37,2014-10-23 11:47:00,
2014-10-23 07:52:00,76.3,67.8,29.92,North,9,2.1,5.8,75,0.00,BKN,SKC,0.00,9.0,WeatherDisplay:10.37,2014-10-23 11:52:00,
2014-10-23 07:57:00,76.3,67.8,29.92,ENE,65,2.8,4.6,75,0.00,BKN,SKC,0.00,11.0,WeatherDisplay:10.37,2014-10-23 11:57:00,
2014-10-23 08:02:00,76.3,67.8,29.92,North,4,3.0,5.8,75,0.00,BKN,SKC,0.00,14.0,WeatherDisplay:10.37,2014-10-23 12:02:00,
2014-10-23 08:07:00,76.2,67.7,29.92,NE,50,2.7,5.8,75,0.00,BKN,SKC,0.00,16.0,WeatherDisplay:10.37,2014-10-23 12:07:00,
2014-10-23 08:12:00,76.2,67.7,29.92,NNE,15,4.3,5.8,75,0.00,BKN,SKC,0.00,18.0,WeatherDisplay:10.37,2014-10-23 12:12:00,
2014-10-23 08:17:00,76.2,67.7,29.93,SE,133,3.7,10.4,75,0.00,BKN,SKC,0.00,19.0,WeatherDisplay:10.37,2014-10-23 12:17:00,
2014-10-23 08:22:00,76.2,67.7,29.93,East,96,2.7,5.8,75,0.00,BKN,SKC,0.00,26.0,WeatherDisplay:10.37,2014-10-23 12:22:00,
2014-10-23 08:27:00,76.2,68.1,29.93,North,7,2.5,4.6,76,0.00,BKN,SKC,0.00,26.0,WeatherDisplay:10.37,2014-10-23 12:27:00,
2014-10-23 08:32:00,76.1,68.0,29.93,East,80,1.5,2.3,76,0.00,BKN,SKC,0.00,35.0,WeatherDisplay:10.37,2014-10-23 12:32:00,
2014-10-23 08:37:00,76.1,67.6,29.93,North,6,4.1,6.0,75,0.00,BKN,SKC,0.00,33.0,WeatherDisplay:10.37,2014-10-23 12:37:00,
2014-10-23 08:42:00,76.1,68.0,29.93,East,100,3.0,5.8,76,0.00,BKN,SKC,0.00,40.0,WeatherDisplay:10.37,2014-10-23 12:42:00,
2014-10-23 08:47:00,76.1,67.6,29.93,NNE,17,4.4,6.0,75,0.00,BKN,SKC,0.00,47.0,WeatherDisplay:10.37,2014-10-23 12:47:00,
2014-10-23 08:52:00,76.1,68.0,29.94,NNE,12,4.5,6.9,76,0.00,BKN,SKC,0.00,51.0,WeatherDisplay:10.37,2014-10-23 12:52:00,
2014-10-23 08:57:00,76.1,67.6,29.94,NNW,340,3.0,6.0,75,0.00,BKN,SKC,0.00,53.0,WeatherDisplay:10.37,2014-10-23 12:57:00,
2014-10-23 09:02:00,76.2,67.7,29.94,NNE,30,3.6,4.6,75,0.00,BKN,SKC,0.00,62.0,WeatherDisplay:10.37,2014-10-23 13:02:00,
2014-10-23 09:07:00,76.2,68.1,29.94,NNE,21,2.5,3.5,76,0.00,BKN,SKC,0.00,67.0,WeatherDisplay:10.37,2014-10-23 13:07:00,
2014-10-23 09:12:00,76.3,67.8,29.94,NE,46,2.8,10.4,75,0.00,BKN,SKC,0.00,58.0,WeatherDisplay:10.37,2014-10-23 13:12:00,
2014-10-23 09:17:00,76.4,67.9,29.94,NNW,343,3.2,6.0,75,0.00,BKN,SKC,0.00,74.0,WeatherDisplay:10.37,2014-10-23 13:17:00,
2014-10-23 09:22:00,76.4,67.9,29.95,NNE,24,3.8,5.8,75,0.00,BKN,SKC,0.00,74.0,WeatherDisplay:10.37,2014-10-23 13:22:00,
2014-10-23 09:27:00,76.4,67.9,29.94,NNE,15,3.5,5.8,75,0.00,BKN,SKC,0.00,81.0,WeatherDisplay:10.37,2014-10-23 13:27:00,
2014-10-23 09:32:00,76.4,67.5,29.95,North,8,4.4,10.4,74,0.00,BKN,SKC,0.00,88.0,WeatherDisplay:10.37,2014-10-23 13:32:00,
2014-10-23 09:37:00,76.4,67.5,29.95,NE,36,3.6,8.1,74,0.00,BKN,SKC,0.00,81.0,WeatherDisplay:10.37,2014-10-23 13:37:00,
2014-10-23 09:42:00,76.5,67.6,29.95,NNE,15,3.3,5.8,74,0.00,BKN,SKC,0.00,88.0,WeatherDisplay:10.37,2014-10-23 13:42:00,
2014-10-23 09:47:00,76.5,67.6,29.95,NNE,26,4.1,5.8,74,0.00,BKN,SKC,0.00,93.0,WeatherDisplay:10.37,2014-10-23 13:47:00,
2014-10-23 09:52:00,76.5,67.6,29.95,North,10,4.7,6.9,74,0.00,BKN,SKC,0.00,56.0,WeatherDisplay:10.37,2014-10-23 13:52:00,
2014-10-23 09:57:00,76.5,67.2,29.96,North,9,6.1,10.4,73,0.00,BKN,SKC,0.00,67.0,WeatherDisplay:10.37,2014-10-23 13:57:00,
2014-10-23 10:02:00,76.5,67.6,29.96,NNE,13,4.9,5.8,74,0.00,BKN,SKC,0.00,79.0,WeatherDisplay:10.37,2014-10-23 14:02:00,
2014-10-23 10:07:00,76.5,67.6,29.96,NNE,32,7.0,7.0,74,0.00,BKN,SKC,0.00,100.0,WeatherDisplay:10.37,2014-10-23 14:07:00,
2014-10-23 10:12:00,76.5,67.6,29.96,NNE,14,2.7,5.8,74,0.00,BKN,SKC,0.00,97.0,WeatherDisplay:10.37,2014-10-23 14:12:00,
2014-10-23 10:17:00,76.6,67.7,29.96,NNE,28,3.7,6.9,74,0.00,BKN,SKC,0.00,97.0,WeatherDisplay:10.37,2014-10-23 14:17:00,
2014-10-23 10:22:00,76.7,68.2,29.96,North,11,3.3,5.8,75,0.00,BKN,SKC,0.00,114.0,WeatherDisplay:10.37,2014-10-23 14:22:00,
2014-10-23 10:27:00,76.7,67.8,29.96,NNW,329,4.6,9.0,74,0.00,BKN,SKC,0.00,127.0,WeatherDisplay:10.37,2014-10-23 14:27:00,
2014-10-23 10:32:00,76.7,67.4,29.97,NNE,26,3.0,3.5,73,0.00,BKN,SKC,0.00,144.0,WeatherDisplay:10.37,2014-10-23 14:32:00,
2014-10-23 10:37:00,76.8,67.5,29.96,NNE,13,3.6,9.2,73,0.00,BKN,SKC,0.00,142.0,WeatherDisplay:10.37,2014-10-23 14:37:00,
2014-10-23 10:42:00,76.9,67.6,29.96,NNE,19,4.2,9.2,73,0.00,BKN,SKC,0.00,167.0,WeatherDisplay:10.37,2014-10-23 14:42:00,
2014-10-23 10:47:00,77.0,67.7,29.96,NE,41,1.3,6.9,73,0.00,BKN,SKC,0.00,165.0,WeatherDisplay:10.37,2014-10-23 14:47:00,
2014-10-23 10:52:00,77.1,67.8,29.96,NNE,22,3.2,8.1,73,0.00,BKN,SKC,0.00,229.0,WeatherDisplay:10.37,2014-10-23 14:52:00,
2014-10-23 10:57:00,77.3,67.6,29.96,North,8,5.8,8.0,72,0.00,BKN,SKC,0.00,239.0,WeatherDisplay:10.37,2014-10-23 14:57:00,
2014-10-23 11:02:00,77.5,67.8,29.96,East,80,4.0,6.9,72,0.00,BKN,SKC,0.00,271.0,WeatherDisplay:10.37,2014-10-23 15:02:00,
2014-10-23 11:07:00,77.7,68.4,29.96,North,356,5.0,6.9,73,0.00,BKN,SKC,0.00,197.0,WeatherDisplay:10.37,2014-10-23 15:07:00,
2014-10-23 11:12:00,77.8,68.0,29.96,North,353,2.8,6.0,72,0.00,BKN,SKC,0.00,192.0,WeatherDisplay:10.37,2014-10-23 15:12:00,
2014-10-23 11:17:00,77.7,67.5,29.96,North,10,2.5,10.4,71,0.00,BKN,SKC,0.00,171.0,WeatherDisplay:10.37,2014-10-23 15:17:00,
2014-10-23 11:22:00,77.6,67.4,29.96,NNE,13,3.3,6.9,71,0.00,BKN,SKC,0.00,190.0,WeatherDisplay:10.37,2014-10-23 15:22:00,
2014-10-23 11:27:00,77.6,67.4,29.96,NNE,15,2.8,5.8,71,0.00,BKN,SKC,0.00,188.0,WeatherDisplay:10.37,2014-10-23 15:27:00,
2014-10-23 11:32:00,77.6,67.9,29.96,NNE,22,2.8,4.6,72,0.00,BKN,SKC,0.00,167.0,WeatherDisplay:10.37,2014-10-23 15:32:00,
2014-10-23 11:37:00,77.6,67.4,29.96,NNE,19,4.3,8.1,71,0.00,BKN,SKC,0.00,206.0,WeatherDisplay:10.37,2014-10-23 15:37:00,
2014-10-23 11:42:00,77.7,68.0,29.96,NNE,19,3.0,6.9,72,0.00,BKN,SKC,0.00,206.0,WeatherDisplay:10.37,2014-10-23 15:42:00,
2014-10-23 11:47:00,77.7,67.5,29.96,NNE,22,5.0,8.1,71,0.00,BKN,SKC,0.00,162.0,WeatherDisplay:10.37,2014-10-23 15:47:00,
2014-10-23 11:52:00,77.7,68.0,29.96,NNE,22,5.4,8.1,72,0.00,BKN,SKC,0.00,135.0,WeatherDisplay:10.37,2014-10-23 15:52:00,
2014-10-23 11:57:00,77.5,67.4,29.96,NNE,30,4.3,10.4,71,0.00,BKN,SKC,0.00,179.0,WeatherDisplay:10.37,2014-10-23 15:57:00,
2014-10-23 12:02:00,77.5,67.8,29.96,NNE,23,2.9,4.6,72,0.00,BKN,SKC,0.00,158.0,WeatherDisplay:10.37,2014-10-23 16:02:00,
2014-10-23 12:07:00,77.4,67.3,29.96,North,3,3.2,6.9,71,0.00,BKN,SKC,0.00,167.0,WeatherDisplay:10.37,2014-10-23 16:07:00,
2014-10-23 12:12:00,77.4,67.3,29.96,North,359,3.6,9.2,71,0.00,BKN,SKC,0.00,153.0,WeatherDisplay:10.37,2014-10-23 16:12:00,
2014-10-23 12:17:00,77.4,67.3,29.96,ESE,119,4.2,8.1,71,0.00,BKN,SKC,0.00,241.0,WeatherDisplay:10.37,2014-10-23 16:17:00,
2014-10-23 12:22:00,77.5,67.8,29.95,NNE,28,3.8,4.6,72,0.00,BKN,SKC,0.00,260.0,WeatherDisplay:10.37,2014-10-23 16:22:00,
2014-10-23 12:27:00,77.7,67.1,29.95,NNE,32,6.2,10.4,70,0.00,BKN,SKC,0.00,267.0,WeatherDisplay:10.37,2014-10-23 16:27:00,
2014-10-23 12:32:00,77.9,67.3,29.95,SSW,203,5.5,10.4,70,0.00,BKN,SKC,0.00,304.0,WeatherDisplay:10.37,2014-10-23 16:32:00,
2014-10-23 12:37:00,78.2,67.6,29.95,NE,38,3.0,4.6,70,0.00,BKN,SKC,0.00,327.0,WeatherDisplay:10.37,2014-10-23 16:37:00,
2014-10-23 12:42:00,78.4,67.8,29.95,NNE,23,4.9,11.5,70,0.00,BKN,SKC,0.00,229.0,WeatherDisplay:10.37,2014-10-23 16:42:00,
2014-10-23 12:47:00,78.5,67.9,29.95,North,354,4.4,5.8,70,0.00,BKN,SKC,0.00,279.0,WeatherDisplay:10.37,2014-10-23 16:47:00,
2014-10-23 12:52:00,78.5,67.5,29.95,North,7,5.3,11.0,69,0.00,BKN,SKC,0.00,253.0,WeatherDisplay:10.37,2014-10-23 16:52:00,
2014-10-23 12:57:00,78.4,67.4,29.95,NNE,12,5.1,10.4,69,0.00,BKN,SKC,0.00,200.0,WeatherDisplay:10.37,2014-10-23 16:57:00,
2014-10-23 13:02:00,78.2,67.6,29.94,NNE,32,5.3,9.2,70,0.00,BKN,SKC,0.00,244.0,WeatherDisplay:10.37,2014-10-23 17:02:00,
2014-10-23 13:07:00,78.3,67.7,29.94,NNE,14,2.7,10.4,70,0.00,BKN,SKC,0.00,250.0,WeatherDisplay:10.37,2014-10-23 17:07:00,
2014-10-23 13:12:00,78.3,67.7,29.94,NNE,26,5.2,7.0,70,0.00,BKN,SKC,0.00,202.0,WeatherDisplay:10.37,2014-10-23 17:12:00,
2014-10-23 13:17:00,78.2,66.8,29.94,North,357,3.8,8.1,68,0.00,BKN,SKC,0.00,271.0,WeatherDisplay:10.37,2014-10-23 17:17:00,
2014-10-23 13:22:00,78.3,67.3,29.93,NNE,13,5.7,9.2,69,0.00,BKN,SKC,0.00,302.0,WeatherDisplay:10.37,2014-10-23 17:22:00,
2014-10-23 13:27:00,78.7,67.7,29.93,North,360,5.7,11.5,69,0.00,BKN,SKC,0.00,408.0,WeatherDisplay:10.37,2014-10-23 17:27:00,
2014-10-23 13:32:00,79.3,67.4,29.93,NNE,26,4.7,6.9,67,0.00,BKN,SKC,0.00,396.0,WeatherDisplay:10.37,2014-10-23 17:32:00,
2014-10-23 13:37:00,79.5,66.7,29.93,NNE,17,6.0,9.2,65,0.00,BKN,SKC,0.00,385.0,WeatherDisplay:10.37,2014-10-23 17:37:00,
2014-10-23 13:42:00,80.2,68.2,29.93,North,11,3.7,5.8,67,0.00,BKN,SKC,0.00,448.0,WeatherDisplay:10.37,2014-10-23 17:42:00,
2014-10-23 13:47:00,80.5,67.2,29.93,NE,37,3.2,8.1,64,0.00,SCT,SKC,0.00,297.0,WeatherDisplay:10.37,2014-10-23 17:47:00,
2014-10-23 13:52:00,79.7,66.9,29.92,North,10,5.2,5.8,65,0.00,BKN,SKC,0.00,230.0,WeatherDisplay:10.37,2014-10-23 17:52:00,
2014-10-23 13:57:00,79.2,66.4,29.92,NNW,346,5.2,11.5,65,0.00,BKN,SKC,0.00,385.0,WeatherDisplay:10.37,2014-10-23 17:57:00,
2014-10-23 14:02:00,79.8,67.9,29.92,North,11,5.3,12.7,67,0.00,SCT,SKC,0.00,348.0,WeatherDisplay:10.37,2014-10-23 18:02:00,
2014-10-23 14:07:00,80.1,67.3,29.92,NNE,25,4.6,9.2,65,0.00,SCT,SKC,0.00,380.0,WeatherDisplay:10.37,2014-10-23 18:07:00,
2014-10-23 14:12:00,79.8,67.4,29.92,North,5,2.7,6.9,66,0.00,BKN,SKC,0.00,287.0,WeatherDisplay:10.37,2014-10-23 18:12:00,
2014-10-23 14:17:00,79.2,66.9,29.92,NNE,23,3.0,8.1,66,0.00,BKN,SKC,0.00,213.0,WeatherDisplay:10.37,2014-10-23 18:17:00,
2014-10-23 14:22:00,78.9,66.6,29.91,NNE,12,6.6,11.5,66,0.00,BKN,SKC,0.00,404.0,WeatherDisplay:10.37,2014-10-23 18:22:00,
2014-10-23 14:27:00,79.5,66.7,29.91,NNE,15,7.8,13.8,65,0.00,SCT,SKC,0.00,545.0,WeatherDisplay:10.37,2014-10-23 18:27:00,
2014-10-23 14:32:00,79.5,66.7,29.91,NNE,20,2.6,6.9,65,0.00,SCT,SKC,0.00,174.0,WeatherDisplay:10.37,2014-10-23 18:32:00,
2014-10-23 14:37:00,79.2,66.4,29.91,North,1,5.3,6.9,65,0.00,BKN,SKC,0.00,141.0,WeatherDisplay:10.37,2014-10-23 18:37:00,
2014-10-23 14:42:00,78.8,66.5,29.91,NNE,17,2.4,8.1,66,0.00,BKN,SKC,0.00,172.0,WeatherDisplay:10.37,2014-10-23 18:42:00,
2014-10-23 14:47:00,78.5,65.8,29.91,NE,48,4.9,9.2,65,0.00,BKN,SKC,0.00,241.0,WeatherDisplay:10.37,2014-10-23 18:47:00,
2014-10-23 14:52:00,78.5,67.5,29.91,NE,45,3.0,3.5,69,0.00,BKN,SKC,0.00,276.0,WeatherDisplay:10.37,2014-10-23 18:52:00,
2014-10-23 14:57:00,78.9,67.0,29.90,NNW,346,4.2,8.1,67,0.00,BKN,SKC,0.00,315.0,WeatherDisplay:10.37,2014-10-23 18:57:00,
2014-10-23 15:02:00,79.1,67.2,29.90,NNE,30,5.8,8.0,67,0.00,BKN,SKC,0.00,244.0,WeatherDisplay:10.37,2014-10-23 19:02:00,
2014-10-23 15:07:00,78.8,66.9,29.91,North,7,4.8,10.4,67,0.00,BKN,SKC,0.00,197.0,WeatherDisplay:10.37,2014-10-23 19:07:00,
2014-10-23 15:12:00,78.5,66.2,29.91,NE,53,3.8,6.9,66,0.00,BKN,SKC,0.00,183.0,WeatherDisplay:10.37,2014-10-23 19:12:00,
2014-10-23 15:17:00,78.4,66.5,29.91,North,7,4.3,8.1,67,0.00,BKN,SKC,0.00,118.0,WeatherDisplay:10.37,2014-10-23 19:17:00,
2014-10-23 15:22:00,78.2,66.3,29.90,ENE,65,2.9,10.4,67,0.00,BKN,SKC,0.00,102.0,WeatherDisplay:10.37,2014-10-23 19:22:00,
2014-10-23 15:27:00,77.9,66.1,29.90,North,356,4.5,8.0,67,0.00,BKN,SKC,0.00,91.0,WeatherDisplay:10.37,2014-10-23 19:27:00,
2014-10-23 15:32:00,77.6,65.8,29.90,North,359,4.8,11.5,67,0.00,BKN,SKC,0.00,81.0,WeatherDisplay:10.37,2014-10-23 19:32:00,
2014-10-23 15:37:00,77.5,66.5,29.90,NNW,344,4.1,8.0,69,0.00,BKN,SKC,0.00,62.0,WeatherDisplay:10.37,2014-10-23 19:37:00,
2014-10-23 15:42:00,77.2,65.8,29.90,NNE,15,4.7,7.0,68,0.00,BKN,SKC,0.00,83.0,WeatherDisplay:10.37,2014-10-23 19:42:00,
2014-10-23 15:47:00,77.1,66.1,29.90,NNE,25,2.9,6.9,69,0.00,BKN,SKC,0.00,69.0,WeatherDisplay:10.37,2014-10-23 19:47:00,
2014-10-23 15:52:00,77.0,66.0,29.90,North,355,3.7,10.0,69,0.00,BKN,SKC,0.00,93.0,WeatherDisplay:10.37,2014-10-23 19:52:00,
2014-10-23 15:57:00,77.0,66.0,29.90,NNE,27,5.0,11.5,69,0.00,BKN,SKC,0.00,113.0,WeatherDisplay:10.37,2014-10-23 19:57:00,
2014-10-23 16:02:00,77.1,66.6,29.90,NNE,19,4.5,9.2,70,0.00,BKN,SKC,0.00,95.0,WeatherDisplay:10.37,2014-10-23 20:02:00,
2014-10-23 16:07:00,77.1,66.1,29.90,NNE,32,3.0,6.9,69,0.00,BKN,SKC,0.00,84.0,WeatherDisplay:10.37,2014-10-23 20:07:00,
2014-10-23 16:12:00,77.0,66.0,29.90,NNE,17,5.9,12.7,69,0.00,BKN,SKC,0.00,84.0,WeatherDisplay:10.37,2014-10-23 20:12:00,
2014-10-23 16:17:00,77.0,66.0,29.90,NE,38,4.4,5.8,69,0.00,BKN,SKC,0.00,113.0,WeatherDisplay:10.37,2014-10-23 20:17:00,
2014-10-23 16:22:00,77.0,66.0,29.90,NNE,15,4.1,6.9,69,0.00,BKN,SKC,0.00,151.0,WeatherDisplay:10.37,2014-10-23 20:22:00,
2014-10-23 16:27:00,77.1,66.1,29.90,NNE,25,3.0,8.0,69,0.00,BKN,SKC,0.00,135.0,WeatherDisplay:10.37,2014-10-23 20:27:00,
2014-10-23 16:32:00,77.3,65.9,29.90,North,349,4.4,6.9,68,0.00,BKN,SKC,0.00,158.0,WeatherDisplay:10.37,2014-10-23 20:32:00,
2014-10-23 16:37:00,77.4,66.0,29.89,South,191,4.5,8.1,68,0.00,BKN,SKC,0.00,167.0,WeatherDisplay:10.37,2014-10-23 20:37:00,
2014-10-23 16:42:00,77.4,66.0,29.90,North,3,3.5,6.9,68,0.00,BKN,SKC,0.00,139.0,WeatherDisplay:10.37,2014-10-23 20:42:00,
2014-10-23 16:47:00,77.4,66.0,29.90,NNE,13,2.8,5.8,68,0.00,BKN,SKC,0.00,104.0,WeatherDisplay:10.37,2014-10-23 20:47:00,
2014-10-23 16:52:00,77.4,66.4,29.90,NNE,24,3.5,8.0,69,0.00,BKN,SKC,0.00,102.0,WeatherDisplay:10.37,2014-10-23 20:52:00,
2014-10-23 16:57:00,77.3,65.9,29.90,NNE,18,6.1,11.5,68,0.00,BKN,SKC,0.00,97.0,WeatherDisplay:10.37,2014-10-23 20:57:00,
2014-10-23 17:02:00,77.3,65.5,29.90,NNE,23,5.9,13.0,67,0.00,BKN,SKC,0.00,95.0,WeatherDisplay:10.37,2014-10-23 21:02:00,
2014-10-23 17:07:00,77.2,65.8,29.90,NNE,30,4.8,8.1,68,0.00,BKN,SKC,0.00,98.0,WeatherDisplay:10.37,2014-10-23 21:07:00,
2014-10-23 17:12:00,77.1,65.7,29.90,North,9,5.5,10.4,68,0.00,BKN,SKC,0.00,84.0,WeatherDisplay:10.37,2014-10-23 21:12:00,
2014-10-23 17:17:00,77.1,65.7,29.90,North,8,3.0,4.6,68,0.00,BKN,SKC,0.00,77.0,WeatherDisplay:10.37,2014-10-23 21:17:00,
2014-10-23 17:23:00,77.1,65.7,29.90,NNE,25,3.7,5.8,68,0.00,BKN,SKC,0.00,83.0,WeatherDisplay:10.37,2014-10-23 21:23:00,
2014-10-23 17:28:00,77.1,65.7,29.90,NE,42,2.7,3.5,68,0.00,BKN,SKC,0.00,86.0,WeatherDisplay:10.37,2014-10-23 21:28:00,
2014-10-23 17:33:00,77.2,65.8,29.90,SE,129,5.5,11.5,68,0.00,BKN,SKC,0.00,79.0,WeatherDisplay:10.37,2014-10-23 21:33:00,
2014-10-23 17:38:00,77.3,65.9,29.90,ENE,58,3.7,6.9,68,0.00,BKN,SKC,0.00,77.0,WeatherDisplay:10.37,2014-10-23 21:38:00,
2014-10-23 17:43:00,77.4,66.0,29.90,NNE,13,4.7,9.2,68,0.00,BKN,SKC,0.00,53.0,WeatherDisplay:10.37,2014-10-23 21:43:00,
2014-10-23 17:48:00,77.3,65.5,29.90,North,6,3.6,8.0,67,0.00,BKN,SKC,0.00,39.0,WeatherDisplay:10.37,2014-10-23 21:48:00,
2014-10-23 17:53:00,77.1,65.3,29.90,NNE,21,4.4,11.5,67,0.00,BKN,SKC,0.00,42.0,WeatherDisplay:10.37,2014-10-23 21:53:00,
2014-10-23 17:58:00,77.0,65.2,29.90,NNW,331,3.0,5.8,67,0.00,BKN,SKC,0.00,42.0,WeatherDisplay:10.37,2014-10-23 21:58:00,
2014-10-23 18:03:00,76.9,65.1,29.90,NNE,32,3.8,6.9,67,0.00,BKN,SKC,0.00,42.0,WeatherDisplay:10.37,2014-10-23 22:03:00,